Location: ActonStarParty
(42.4766°N, 71.4538°W)
Time: 06:14:03
(UTC-04:00)

Amateur Radio Satellites - All Passes

Search period start: 28 September 2016 05:44
Search period end: 29 September 2016 05:44
Location: ActonStarParty, 42.4766°N, 71.4538°W

Satellite Date Start Highest point End Downlink Frequencies (MHz)
Time Altitude Azimuth
STRAND 1 28 Sep 05:45:21 05:48:01 14° 59° (ENE) 05:50:42 437.568
PCSat 28 Sep 05:46:40 05:51:34 33° 310° (NW) 05:56:29 145.827
ITAMSAT 1 28 Sep 05:47:17 05:49:06 12° 303° (WNW) 05:50:56 435.822/435.867
NOAA 15 28 Sep 05:50:01 05:53:25 17° 91° (E) 05:56:49 137.62
STARS 28 Sep 05:55:47 05:57:14 11° 270° (W) 05:58:42 437.465
AO-7 28 Sep 05:56:00 06:03:36 42° 300° (WNW) 06:11:11 29.400- 29.500
Cubesat XI-IV 28 Sep 06:06:18 06:10:11 20° 92° (E) 06:14:03 437.490
CUTE-I 28 Sep 06:06:23 06:10:18 20° 92° (E) 06:14:12 437.470
Cosmos 2504 28 Sep 06:11:56 06:16:56 19° 295° (WNW) 06:21:52 435.465 / 435.565
CUBESAT XI-V 28 Sep 06:16:12 06:19:32 19° 268° (W) 06:22:53 437.345
GOMX 1 28 Sep 06:28:11 06:32:12 34° 96° (E) 06:36:02 467.674
HORYU 2 28 Sep 06:29:36 06:33:55 52° 288° (WNW) 06:38:15 437.375
BRITE-PL 28 Sep 06:39:28 06:44:19 73° 285° (WNW) 06:48:46 437.365/2234.400
NOAA 18 28 Sep 06:48:09 06:53:13 38° 98° (E) 06:58:15 137.9125
DOVE 4 28 Sep 06:48:57 06:52:18 23° 94° (E) 06:55:35 437.250
DANDE 28 Sep 07:01:02 07:09:31 85° 79° (E) 07:17:23 436.750
AIST 1 28 Sep 07:02:33 07:03:29 11° 294° (WNW) 07:04:26
CUSAT 1 28 Sep 07:12:25 07:19:24 39° 273° (W) 07:25:21 437.405
LilacSat-2 28 Sep 07:13:25 07:17:15 76° 284° (WNW) 07:21:05 437.200
AO-85 28 Sep 07:15:53 07:18:14 15° 251° (WSW) 07:20:32 145.980
O/OREOS (USA 219) 28 Sep 07:16:41 07:21:11 65° 110° (ESE) 07:25:44 437.305
STRAND 1 28 Sep 07:21:26 07:26:32 79° 258° (WSW) 07:31:40 437.568
RS-15 28 Sep 07:26:14 07:35:21 25° 260° (W) 07:44:20 29.354- 29.394
NOAA 15 28 Sep 07:28:23 07:33:37 62° 288° (WNW) 07:38:49 137.62
Cosmos 2499 28 Sep 07:29:06 07:33:08 16° 79° (E) 07:37:09 435.465 / 435.565
PRISM 28 Sep 07:35:05 07:37:15 14° 62° (ENE) 07:39:24 437.425
Cubesat XI-IV 28 Sep 07:45:21 07:50:34 54° 289° (WNW) 07:55:46 437.490
CUTE-I 28 Sep 07:45:26 07:50:39 54° 289° (WNW) 07:55:50 437.470
GONETS M04 28 Sep 07:47:45 07:55:20 34° 84° (E) 08:02:55
CINEMA 3 28 Sep 07:58:47 08:02:37 34° 97° (E) 08:06:30 145.822/145.860
GOMX 1 28 Sep 08:06:43 08:10:05 22° 295° (WNW) 08:13:20 467.674
CUTE 1.7 + AOD 2 28 Sep 08:11:25 08:15:22 35° 97° (E) 08:19:18 437.475
CANX-2 28 Sep 08:12:37 08:16:43 41° 98° (E) 08:20:48 2200.000
SEEDS 28 Sep 08:12:42 08:16:15 25° 95° (E) 08:19:46 437.485
DOVE 4 28 Sep 08:26:24 08:30:02 29° 291° (WNW) 08:33:37 437.250
NOAA 18 28 Sep 08:29:00 08:33:45 31° 295° (WNW) 08:38:28 137.9125
AAUSAT CUBESAT 2 28 Sep 08:34:38 08:38:01 23° 94° (E) 08:41:23 437.432
HO-68 28 Sep 08:37:21 08:44:28 63° 103° (ESE) 08:51:32 435.675
BEESAT 2 28 Sep 08:44:19 08:46:20 13° 39° (NE) 08:48:20 435.950
DANDE 28 Sep 08:45:20 08:51:16 22° 279° (W) 08:56:59 436.750
O/OREOS (USA 219) 28 Sep 08:58:17 09:01:04 16° 308° (NW) 09:03:51 437.305
TIGRISAT 28 Sep 09:01:33 09:03:51 14° 63° (ENE) 09:06:10 435.000
CUBEBUG 2 28 Sep 09:04:13 09:08:23 49° 99° (E) 09:12:39 437.445
PRISM 28 Sep 09:07:58 09:12:05 56° 259° (W) 09:16:12 437.425
FUNcube-1 28 Sep 09:08:44 09:12:07 22° 94° (E) 09:15:32 145.935
Cosmos 2499 28 Sep 09:18:06 09:25:16 82° 278° (W) 09:32:22 435.465 / 435.565
COMPASS 1 28 Sep 09:18:36 09:22:51 86° 287° (WNW) 09:27:04 437.405
UWE-3 28 Sep 09:21:40 09:25:53 50° 100° (E) 09:30:11 435.000/436.395/437.385
BEESAT 3 28 Sep 09:24:30 09:28:23 49° 53° (NE) 09:32:14 437.485
CINEMA 3 28 Sep 09:36:28 09:39:34 21° 293° (WNW) 09:42:43 145.822/145.860
UNISAT 6 28 Sep 09:40:21 09:44:18 38° 71° (ENE) 09:48:16 437.425
GONETS M04 28 Sep 09:43:04 09:51:42 56° 284° (WNW) 10:00:24
CUTE 1.7 + AOD 2 28 Sep 09:47:42 09:51:00 22° 293° (WNW) 09:54:17 437.475
Oscar 11 28 Sep 09:47:46 09:52:06 59° 101° (E) 09:56:24 145.826/435.025
SEEDS 28 Sep 09:48:14 09:51:55 29° 291° (WNW) 09:55:34 437.485
CANX-2 28 Sep 09:49:16 09:52:16 19° 295° (WNW) 09:55:16 2200.000
ZACube-1 28 Sep 09:50:16 09:54:35 67° 101° (ESE) 09:59:00 437.345
DELFI C3 28 Sep 09:51:56 09:55:18 25° 95° (E) 09:58:37 145.870
HUMSAT D 28 Sep 10:08:27 10:11:39 20° 93° (E) 10:14:52 437.325/437.525
AAUSAT CUBESAT 2 28 Sep 10:09:49 10:13:30 30° 290° (WNW) 10:17:09 437.432
QB50P2 28 Sep 10:10:00 10:11:41 12° 62° (ENE) 10:13:21 145.880/145.840
POLYITAN 1 28 Sep 10:12:14 10:13:54 12° 62° (ENE) 10:15:32 437.675
PHONESAT 2.4 28 Sep 10:12:25 10:14:03 14° 152° (SSE) 10:15:42 2401.200-2431.200
ANTELSAT 28 Sep 10:15:22 10:19:39 87° 255° (WSW) 10:23:55 437.575/2403.000
BEESAT 2 28 Sep 10:20:41 10:24:43 86° 237° (WSW) 10:28:43 435.950
HO-68 28 Sep 10:25:54 10:31:40 27° 301° (WNW) 10:37:27 435.675
TIGRISAT 28 Sep 10:35:58 10:40:07 54° 260° (W) 10:44:17 435.000
CUBEBUG 2 28 Sep 10:42:01 10:44:39 16° 295° (WNW) 10:47:20 437.445
FUNcube-1 28 Sep 10:44:30 10:48:25 34° 290° (WNW) 10:52:24 145.935
DUCHIFAT 1 28 Sep 10:47:38 10:51:01 24° 68° (ENE) 10:54:25 145.980
QB50P1 28 Sep 10:49:54 10:53:33 29° 69° (ENE) 10:57:13 145.935-145.965
BUGSAT 1 28 Sep 10:50:54 10:52:02 11° 62° (ENE) 10:53:10 437.445
ESTCUBE 1 28 Sep 10:56:42 10:57:39 11° 88° (E) 10:58:37 437.505/2401.250
UWE-3 28 Sep 10:59:20 11:01:58 16° 295° (WNW) 11:04:38 435.000/436.395/437.385
JAS-2 28 Sep 10:59:48 11:05:51 40° 64° (ENE) 11:12:34 435.910
POPSAT HIP 1 28 Sep 11:03:08 11:07:04 40° 71° (ENE) 11:10:59 437.405
BEESAT 3 28 Sep 11:03:15 11:05:39 15° 249° (WSW) 11:08:01 437.485
AIST 2 28 Sep 11:09:24 11:12:05 16° 40° (NE) 11:14:45 435.215
Cosmos 2499 28 Sep 11:16:09 11:19:36 14° 300° (WNW) 11:23:04 435.465 / 435.565
UNISAT 6 28 Sep 11:18:11 11:21:11 18° 267° (W) 11:24:11 437.425
NANOSAT C BR1 28 Sep 11:18:57 11:23:03 58° 74° (ENE) 11:27:11 145.865
Oscar 11 28 Sep 11:25:26 11:27:44 14° 297° (WNW) 11:30:01 145.826/435.025
DELFI C3 28 Sep 11:26:43 11:30:04 26° 291° (WNW) 11:33:24 145.870
ZACube-1 28 Sep 11:28:26 11:30:22 13° 297° (WNW) 11:32:18 437.345
QB50P2 28 Sep 11:42:45 11:46:56 66° 259° (WSW) 11:51:08 145.880/145.840
HUMSAT D 28 Sep 11:43:28 11:47:22 35° 289° (WNW) 11:51:16 437.325/437.525
POLYITAN 1 28 Sep 11:44:59 11:49:08 66° 258° (WSW) 11:53:20 437.675
AISAT 28 Sep 11:45:12 11:48:14 18° 93° (E) 11:51:14 437.250
PHONESAT 2.4 28 Sep 11:46:55 11:49:43 42° 168° (SSE) 11:52:33 2401.200-2431.200
GONETS M04 28 Sep 11:48:36 11:50:54 11° 308° (NW) 11:53:11
Gurwin Techsat 1B 28 Sep 12:16:29 12:18:24 12° 57° (ENE) 12:20:20 435.225
DX 1 28 Sep 12:18:39 12:22:12 24° 95° (E) 12:25:42 434.975-435.025
AUBIESAT-1 28 Sep 12:20:55 12:22:18 12° 98° (E) 12:23:40 437.475
BUGSAT 1 28 Sep 12:22:46 12:26:52 70° 258° (WSW) 12:30:56 437.445
DUCHIFAT 1 28 Sep 12:22:58 12:26:35 29° 264° (W) 12:30:14 145.980
QB50P1 28 Sep 12:25:54 12:29:19 24° 265° (W) 12:32:45 145.935-145.965
VELOX 1 28 Sep 12:27:50 12:32:07 49° 100° (E) 12:36:21 145.980
ESTCUBE 1 28 Sep 12:30:26 12:34:59 76° 286° (WNW) 12:39:29 437.505/2401.250
CUBEBUG 1 28 Sep 12:30:48 12:35:09 71° 102° (ESE) 12:39:26 437.445
POPSAT HIP 1 28 Sep 12:40:11 12:43:00 17° 267° (W) 12:45:50 437.405
JAS-2 28 Sep 12:44:46 12:50:48 41° 265° (W) 12:57:36 435.910
AIST 2 28 Sep 12:46:50 12:51:01 71° 239° (WSW) 12:55:11 435.215
50 SAT 28 Sep 12:47:04 12:50:46 87° 103° (ESE) 12:54:25 437.505
PCSat 28 Sep 12:50:03 12:55:06 37° 51° (NE) 13:00:07 145.827
Oscar 19 28 Sep 12:50:32 12:55:29 47° 70° (ENE) 13:00:27 437.125/150
M-CUBED/EXP-1 PRIME 28 Sep 12:57:14 13:00:24 46° 105° (ESE) 13:03:34 437.505
NANOSAT C BR1 28 Sep 12:57:29 12:59:09 12° 270° (W) 13:00:49 145.865
SPROUT 28 Sep 13:09:19 13:13:36 80° 104° (ESE) 13:17:51 437.525
AO-7 28 Sep 13:14:34 13:19:18 17° 46° (NE) 13:24:03 29.400- 29.500
AISAT 28 Sep 13:20:45 13:24:54 42° 289° (WNW) 13:29:01 437.250
PHONESAT 2.4 28 Sep 13:22:46 13:25:40 56° 184° (S) 13:28:34 2401.200-2431.200
UKube-1 28 Sep 13:24:28 13:28:48 84° 284° (WNW) 13:33:06 .
Cosmos 2491 28 Sep 13:32:31 13:38:45 22° 79° (ENE) 13:45:00 435.465 / 435.565
YUBILEINY 28 Sep 13:33:38 13:41:57 46° 74° (ENE) 13:50:12 435.215
ITAMSAT 1 28 Sep 13:46:06 13:49:59 22° 63° (ENE) 13:53:53 435.822/435.867
Gurwin Techsat 1B 28 Sep 13:52:11 13:57:29 82° 75° (ENE) 14:02:50 435.225
AUBIESAT-1 28 Sep 13:53:54 13:56:57 35° 293° (WNW) 14:00:00 437.475
DX 1 28 Sep 13:54:33 13:58:23 31° 292° (WNW) 14:02:12 434.975-435.025
VELOX 1 28 Sep 14:05:21 14:08:12 17° 297° (WNW) 14:11:01 145.980
Cosmos 2504 28 Sep 14:06:28 14:12:42 28° 69° (ENE) 14:19:11 435.465 / 435.565
CUBEBUG 1 28 Sep 14:09:10 14:10:50 12° 299° (WNW) 14:12:30 437.445
SO-50 28 Sep 14:09:10 14:12:15 17° 110° (ESE) 14:15:19 436.795
TISAT 1 28 Sep 14:27:44 14:31:54 70° 285° (WNW) 14:36:02 437.305
Oscar 19 28 Sep 14:31:00 14:35:01 22° 267° (W) 14:39:03 437.125/150
PCSat 28 Sep 14:33:35 14:38:26 34° 250° (WSW) 14:43:14 145.827
M-CUBED/EXP-1 PRIME 28 Sep 14:33:58 14:34:34 10° 302° (WNW) 14:35:10 437.505
SPROUT 28 Sep 14:48:10 14:48:53 10° 299° (WNW) 14:49:36 437.525
PHONESAT 2.4 28 Sep 14:58:59 15:01:31 25° 200° (SSW) 15:04:02 2401.200-2431.200
AO-7 28 Sep 15:02:22 15:10:35 68° 67° (ENE) 15:18:48 29.400- 29.500
ITUPSAT 1 28 Sep 15:02:27 15:07:06 47° 99° (E) 15:11:44 437.325
MOZHAYETS 4 28 Sep 15:14:15 15:15:39 11° 89° (E) 15:17:04
SWISSCUBE 28 Sep 15:15:07 15:19:56 73° 102° (ESE) 15:24:43 437.505
ITAMSAT 1 28 Sep 15:24:06 15:29:05 50° 260° (W) 15:34:09 435.822/435.867
Cosmos 2491 28 Sep 15:25:44 15:34:31 79° 278° (W) 15:43:25 435.465 / 435.565
BEESAT 28 Sep 15:28:02 15:32:52 87° 104° (ESE) 15:37:39 436.000
AIST 1 28 Sep 15:28:10 15:31:15 19° 71° (ENE) 15:34:19
YUBILEINY 28 Sep 15:30:44 15:38:34 40° 274° (W) 15:46:24 435.215
KKS-1 28 Sep 15:35:34 15:36:34 11° 89° (E) 15:37:33 437.445
Gurwin Techsat 1B 28 Sep 15:35:51 15:38:04 13° 271° (W) 15:40:19 435.225
SO-50 28 Sep 15:47:28 15:52:16 63° 306° (NW) 15:57:01 436.795
O/OREOS (USA 219) 28 Sep 15:47:50 15:50:51 17° 53° (NE) 15:53:50 437.305
HORYU 2 28 Sep 15:53:23 15:56:06 16° 63° (ENE) 15:58:51 437.375
Cosmos 2504 28 Sep 15:59:11 16:06:26 58° 268° (W) 16:14:11 435.465 / 435.565
STARS 28 Sep 16:07:11 16:08:29 11° 90° (E) 16:09:46 437.465
BRITE-PL 28 Sep 16:13:00 16:16:59 20° 63° (ENE) 16:20:53 437.365/2234.400
CUBESAT XI-V 28 Sep 16:36:01 16:37:06 11° 88° (E) 16:38:10 437.345
NOAA 18 28 Sep 16:38:55 16:40:44 12° 55° (NE) 16:42:33 137.9125
ITUPSAT 1 28 Sep 16:41:05 16:44:36 21° 296° (WNW) 16:48:06 437.325
MOZHAYETS 4 28 Sep 16:48:41 16:53:20 75° 286° (WNW) 16:57:58
SWISSCUBE 28 Sep 16:54:38 16:57:08 14° 300° (WNW) 16:59:36 437.505
AO-7 28 Sep 16:57:06 17:03:54 28° 265° (W) 17:10:45 29.400- 29.500
AIST 1 28 Sep 17:05:03 17:08:59 36° 269° (W) 17:12:52
BEESAT 28 Sep 17:08:12 17:09:55 12° 301° (WNW) 17:11:39 436.000
KKS-1 28 Sep 17:09:11 17:13:37 72° 286° (WNW) 17:18:01 437.445
NOAA 15 28 Sep 17:10:13 17:14:47 30° 66° (ENE) 17:19:22 137.62
O/OREOS (USA 219) 28 Sep 17:26:07 17:30:40 59° 251° (WSW) 17:35:10 437.305
HO-68 28 Sep 17:26:21 17:27:08 10° 46° (NE) 17:27:55 435.675
Cosmos 2491 28 Sep 17:27:35 17:32:58 17° 301° (WNW) 17:38:24 435.465 / 435.565
HORYU 2 28 Sep 17:27:58 17:32:15 52° 260° (W) 17:36:34 437.375
CUTE-I 28 Sep 17:28:34 17:33:21 35° 67° (ENE) 17:38:09 437.470
Cubesat XI-IV 28 Sep 17:28:39 17:33:26 35° 67° (ENE) 17:38:14 437.490
SO-50 28 Sep 17:31:29 17:33:41 13° 327° (NNW) 17:35:51 436.795
GOMX 1 28 Sep 17:35:38 17:40:44 46° 71° (ENE) 17:45:36 467.674
RS-15 28 Sep 17:35:40 17:36:56 10° 91° (E) 17:38:11 29.354- 29.394
STARS 28 Sep 17:40:56 17:45:17 68° 286° (WNW) 17:49:36 437.465
BRITE-PL 28 Sep 17:49:16 17:54:55 66° 259° (W) 18:00:30 437.365/2234.400
DOVE 4 28 Sep 17:54:19 17:58:36 30° 69° (ENE) 18:02:42 437.250
LilacSat-2 28 Sep 17:55:43 17:59:23 54° 74° (ENE) 18:03:05 437.200
GONETS M04 28 Sep 17:57:24 18:02:44 17° 58° (ENE) 18:08:01
CUBESAT XI-V 28 Sep 18:10:19 18:15:03 79° 283° (WNW) 18:19:41 437.345
NOAA 18 28 Sep 18:15:00 18:20:28 76° 73° (ENE) 18:25:56 137.9125
CUSAT 1 28 Sep 18:31:00 18:36:50 39° 88° (E) 18:43:45 437.405
DANDE 28 Sep 18:31:02 18:33:20 12° 74° (ENE) 18:35:49 436.750
NOAA 15 28 Sep 18:49:34 18:54:26 36° 263° (W) 18:59:20 137.62
CINEMA 3 28 Sep 19:00:58 19:05:00 35° 71° (ENE) 19:08:54 145.822/145.860
CUTE 1.7 + AOD 2 28 Sep 19:04:47 19:08:22 27° 68° (ENE) 19:11:57 437.475
SEEDS 28 Sep 19:05:24 19:08:27 20° 66° (ENE) 19:11:30 437.485
CANX-2 28 Sep 19:05:58 19:09:44 32° 69° (ENE) 19:13:31 2200.000
HO-68 28 Sep 19:06:21 19:13:12 50° 66° (ENE) 19:20:03 435.675
Cosmos 2499 28 Sep 19:07:14 19:14:07 36° 73° (ENE) 19:21:25 435.465 / 435.565
ISS 28 Sep 19:08:27 19:10:02 13° 131° (SE) 19:11:39 145.825
CUTE-I 28 Sep 19:08:46 19:13:24 30° 264° (W) 19:18:03 437.470
Cubesat XI-IV 28 Sep 19:08:50 19:13:30 31° 264° (W) 19:18:11 437.490
GOMX 1 28 Sep 19:14:40 19:18:55 24° 266° (W) 19:23:03 467.674
AAUSAT CUBESAT 2 28 Sep 19:25:57 19:28:46 18° 65° (ENE) 19:31:34 437.432
STRAND 1 28 Sep 19:31:30 19:36:10 34° 97° (E) 19:40:48 437.568
DOVE 4 28 Sep 19:31:46 19:36:13 31° 264° (W) 19:40:27 437.250
LilacSat-2 28 Sep 19:33:26 19:34:01 10° 270° (W) 19:34:36 437.200
RS-15 28 Sep 19:35:11 19:46:19 57° 112° (ESE) 19:58:02 29.354- 29.394
AO-85 28 Sep 19:49:49 19:53:06 17° 110° (ESE) 19:56:18 145.980
GONETS M04 28 Sep 19:52:19 20:01:12 78° 82° (E) 20:09:57
NOAA 18 28 Sep 19:58:49 20:01:42 14° 270° (W) 20:04:35 137.9125
CUBEBUG 2 28 Sep 20:03:02 20:06:59 42° 72° (ENE) 20:10:55 437.445
FUNcube-1 28 Sep 20:05:35 20:08:23 18° 65° (ENE) 20:11:11 145.935
DANDE 28 Sep 20:09:15 20:14:28 88° 102° (ESE) 20:21:28 436.750
COMPASS 1 28 Sep 20:09:29 20:13:37 67° 74° (ENE) 20:17:48 437.405
CUSAT 1 28 Sep 20:12:42 20:18:45 41° 290° (WNW) 20:26:00 437.405
UWE-3 28 Sep 20:19:23 20:23:17 42° 72° (ENE) 20:27:13 435.000/436.395/437.385
CINEMA 3 28 Sep 20:38:47 20:42:12 21° 266° (W) 20:45:32 145.822/145.860
DELFI C3 28 Sep 20:38:57 20:41:35 17° 65° (ENE) 20:44:12 145.870
SEEDS 28 Sep 20:39:58 20:43:53 37° 263° (W) 20:47:50 437.485
CUTE 1.7 + AOD 2 28 Sep 20:40:33 20:44:07 27° 265° (W) 20:47:45 437.475
CANX-2 28 Sep 20:42:16 20:45:37 22° 266° (W) 20:49:00 2200.000
ISS 28 Sep 20:42:52 20:46:07 76° 327° (NNW) 20:49:23 145.825
Oscar 11 28 Sep 20:42:53 20:47:01 48° 72° (ENE) 20:51:12 145.826/435.025
ZACube-1 28 Sep 20:46:39 20:50:41 53° 74° (ENE) 20:54:44 437.345
PRISM 28 Sep 20:49:41 20:52:33 18° 93° (E) 20:55:23 437.425
HO-68 28 Sep 20:54:49 21:01:06 33° 264° (W) 21:07:26 435.675
AAUSAT CUBESAT 2 28 Sep 20:59:59 21:03:55 41° 262° (W) 21:07:54 437.432
Cosmos 2499 28 Sep 21:00:11 21:07:19 46° 270° (W) 21:14:58 435.465 / 435.565
HUMSAT D 28 Sep 21:01:08 21:03:35 16° 64° (ENE) 21:06:02 437.325/437.525
STRAND 1 28 Sep 21:10:46 21:15:15 31° 294° (WNW) 21:19:44 437.568
AO-85 28 Sep 21:27:59 21:33:09 68° 305° (NW) 21:38:00 145.980
FUNcube-1 28 Sep 21:40:29 21:44:20 39° 262° (W) 21:48:14 145.935
CUBEBUG 2 28 Sep 21:41:13 21:43:49 16° 268° (W) 21:46:25 437.445
RS-15 28 Sep 21:47:43 21:59:04 51° 317° (NW) 22:11:00 29.354- 29.394
COMPASS 1 28 Sep 21:48:47 21:49:36 10° 271° (W) 21:50:27 437.405
GONETS M04 28 Sep 21:50:41 21:56:57 22° 281° (WNW) 22:03:13
DANDE 28 Sep 21:55:03 21:58:39 16° 304° (NW) 22:02:45 436.750
ESTCUBE 1 28 Sep 21:56:47 21:58:31 12° 60° (ENE) 22:00:16 437.505/2401.250
UWE-3 28 Sep 21:57:24 21:59:59 16° 268° (W) 22:02:33 435.000/436.395/437.385
ANTELSAT 28 Sep 22:06:55 22:10:02 19° 93° (E) 22:13:11 437.575/2403.000
DELFI C3 28 Sep 22:12:20 22:16:06 39° 262° (W) 22:19:54 145.870
ISS 28 Sep 22:20:29 22:23:01 20° 346° (NNW) 22:25:35 145.825
Oscar 11 28 Sep 22:20:52 22:23:25 15° 269° (W) 22:25:59 145.826/435.025
PRISM 28 Sep 22:24:09 22:27:59 37° 290° (WNW) 22:31:47 437.425
ZACube-1 28 Sep 22:25:30 22:27:19 13° 270° (W) 22:29:09 437.345
TIGRISAT 28 Sep 22:26:38 22:30:27 28° 96° (E) 22:34:18 435.000
HUMSAT D 28 Sep 22:34:54 22:38:49 46° 261° (W) 22:42:48 437.325/437.525
SO-50 28 Sep 22:38:40 22:42:11 21° 41° (NE) 22:45:38 436.795
AISAT 28 Sep 22:43:19 22:46:25 19° 64° (ENE) 22:49:32 437.250
AUBIESAT-1 28 Sep 23:06:19 23:09:27 23° 64° (ENE) 23:12:26 437.475
UNISAT 6 28 Sep 23:07:09 23:11:35 82° 102° (ESE) 23:16:06 437.425
AO-85 28 Sep 23:11:53 23:14:24 14° 324° (NW) 23:16:52 145.980
DX 1 28 Sep 23:14:49 23:18:19 24° 66° (ENE) 23:21:49 434.975-435.025
50 SAT 28 Sep 23:24:07 23:27:30 38° 72° (ENE) 23:30:54 437.505
VELOX 1 28 Sep 23:25:26 23:29:41 47° 72° (ENE) 23:33:58 145.980
CUBEBUG 1 28 Sep 23:26:55 23:31:16 63° 74° (ENE) 23:35:39 437.445
QB50P2 28 Sep 23:27:47 23:30:46 19° 93° (E) 23:33:45 145.880/145.840
POLYITAN 1 28 Sep 23:29:58 23:32:58 19° 93° (E) 23:35:57 437.675
ESTCUBE 1 28 Sep 23:30:09 23:34:41 78° 258° (WSW) 23:39:16 437.505/2401.250
ANTELSAT 28 Sep 23:42:44 23:46:54 42° 288° (WNW) 23:51:09 437.575/2403.000
Cosmos 2491 28 Sep 23:42:50 23:44:52 11° 52° (NE) 23:46:53 435.465 / 435.565
M-CUBED/EXP-1 PRIME 28 Sep 23:43:32 23:47:39 77° 70° (ENE) 23:51:27 437.505
JAS-2 28 Sep 23:52:58 00:00:07 37° 94° (E) 00:06:54 435.910
ISS 28 Sep 23:58:07 00:00:23 17° 6° (N) 00:02:39 145.825
SPROUT 29 Sep 00:03:03 00:07:17 64° 74° (ENE) 00:11:30 437.525
TIGRISAT 29 Sep 00:03:18 00:07:04 28° 291° (WNW) 00:10:53 435.000
BUGSAT 1 29 Sep 00:05:04 00:07:25 15° 92° (E) 00:09:47 437.445
DUCHIFAT 1 29 Sep 00:05:43 00:09:41 39° 98° (E) 00:13:37 145.980
RS-15 29 Sep 00:05:52 00:15:30 26° 349° (N) 00:25:22 29.354- 29.394
QB50P1 29 Sep 00:08:54 00:13:01 49° 100° (E) 00:17:06 145.935-145.965
BEESAT 2 29 Sep 00:14:52 00:16:50 13° 109° (ESE) 00:18:47 435.950
AISAT 29 Sep 00:18:18 00:22:34 44° 261° (W) 00:26:50 437.250
SO-50 29 Sep 00:18:32 00:23:02 57° 240° (WSW) 00:27:24 436.795
UKube-1 29 Sep 00:19:09 00:23:29 88° 78° (ENE) 00:27:51 .
POPSAT HIP 1 29 Sep 00:22:28 00:26:40 70° 102° (ESE) 00:30:52 437.405
NANOSAT C BR1 29 Sep 00:38:04 00:42:17 81° 284° (WNW) 00:46:29 145.865
AUBIESAT-1 29 Sep 00:40:17 00:43:48 28° 257° (WSW) 00:47:07 437.475
UNISAT 6 29 Sep 00:46:30 00:47:40 11° 299° (WNW) 00:48:51 437.425
SWISSCUBE 29 Sep 00:48:21 00:49:43 11° 58° (ENE) 00:51:03 437.505
DX 1 29 Sep 00:50:23 00:54:21 33° 263° (W) 00:58:18 434.975-435.025
BEESAT 3 29 Sep 00:52:26 00:56:18 72° 121° (ESE) 01:00:15 437.485
50 SAT 29 Sep 00:59:17 01:01:10 14° 268° (W) 01:03:03 437.505
BEESAT 29 Sep 01:00:14 01:02:28 13° 60° (ENE) 01:04:41 436.000
QB50P2 29 Sep 01:02:47 01:06:42 38° 289° (WNW) 01:10:37 145.880/145.840
Oscar 19 29 Sep 01:02:49 01:05:44 15° 90° (E) 01:08:39 437.125/150
VELOX 1 29 Sep 01:03:30 01:06:23 17° 268° (W) 01:09:17 145.980
POLYITAN 1 29 Sep 01:04:59 01:08:54 38° 289° (WNW) 01:12:49 437.675
CUBEBUG 1 29 Sep 01:06:05 01:07:57 12° 270° (W) 01:09:50 437.445
TISAT 1 29 Sep 01:19:30 01:23:42 89° 271° (W) 01:27:54 437.305
ISS 29 Sep 01:34:25 01:37:32 39° 26° (NNE) 01:40:39 145.825
Cosmos 2491 29 Sep 01:35:26 01:44:07 55° 76° (ENE) 01:52:41 435.465 / 435.565
JAS-2 29 Sep 01:37:42 01:45:15 51° 292° (WNW) 01:52:27 435.910
BUGSAT 1 29 Sep 01:39:12 01:43:00 42° 288° (WNW) 01:46:49 437.445
DUCHIFAT 1 29 Sep 01:42:09 01:45:06 19° 294° (WNW) 01:48:01 145.980
SPROUT 29 Sep 01:42:18 01:43:37 11° 270° (W) 01:44:57 437.525
QB50P1 29 Sep 01:45:54 01:48:23 16° 296° (WNW) 01:50:54 145.935-145.965
BEESAT 2 29 Sep 01:50:17 01:54:10 55° 306° (NW) 01:58:06 435.950
POPSAT HIP 1 29 Sep 02:00:26 02:01:53 12° 299° (WNW) 02:03:20 437.405
Gurwin Techsat 1B 29 Sep 02:08:06 02:12:48 31° 96° (E) 02:17:27 435.225
ITUPSAT 1 29 Sep 02:09:36 02:14:17 59° 72° (ENE) 02:19:00 437.325
MOZHAYETS 4 29 Sep 02:16:53 02:18:52 13° 61° (ENE) 02:20:51
SWISSCUBE 29 Sep 02:21:58 02:26:44 88° 83° (E) 02:31:33 437.505
RS-15 29 Sep 02:22:42 02:33:21 32° 25° (NNE) 02:43:57 29.354- 29.394
BEESAT 3 29 Sep 02:32:12 02:34:26 14° 320° (NW) 02:36:40 437.485
KKS-1 29 Sep 02:34:09 02:35:57 12° 60° (ENE) 02:37:45 437.445
BEESAT 29 Sep 02:34:51 02:39:36 77° 257° (WSW) 02:44:24 436.000
YUBILEINY 29 Sep 02:35:04 02:43:27 52° 89° (E) 02:51:49 435.215
Oscar 19 29 Sep 02:40:24 02:45:32 67° 287° (WNW) 02:50:36 437.125/150
AIST 2 29 Sep 02:45:44 02:48:44 20° 112° (ESE) 02:51:46 435.215
Cosmos 2504 29 Sep 02:47:55 02:52:59 21° 82° (E) 02:57:58 435.465 / 435.565
STARS 29 Sep 03:04:38 03:06:23 12° 61° (ENE) 03:08:09 437.465
AO-7 29 Sep 03:04:42 03:10:19 20° 91° (E) 03:15:55 29.400- 29.500
ISS 29 Sep 03:11:03 03:13:56 29° 224° (SW) 03:16:50 145.825
JAS-2 29 Sep 03:26:02 03:28:25 12° 313° (NW) 03:30:47 435.910
PCSat 29 Sep 03:32:53 03:37:25 28° 109° (ESE) 03:41:59 145.827
Cosmos 2491 29 Sep 03:32:55 03:40:32 34° 276° (W) 03:48:05 435.465 / 435.565
ITAMSAT 1 29 Sep 03:35:59 03:41:08 54° 101° (E) 03:46:14 435.822/435.867
CUBESAT XI-V 29 Sep 03:39:39 03:41:45 13° 61° (ENE) 03:43:52 437.345
Gurwin Techsat 1B 29 Sep 03:47:57 03:52:45 35° 293° (WNW) 03:57:32 435.225
ITUPSAT 1 29 Sep 03:49:45 03:52:30 15° 269° (W) 03:55:15 437.325
MOZHAYETS 4 29 Sep 03:50:51 03:55:23 74° 257° (WSW) 04:00:01
AIST 1 29 Sep 04:00:22 04:01:33 11° 83° (E) 04:02:44
KKS-1 29 Sep 04:07:28 04:11:55 74° 257° (WSW) 04:16:22 437.445
AO-85 29 Sep 04:20:08 04:22:53 17° 39° (NE) 04:25:31 145.980
AIST 2 29 Sep 04:23:02 04:26:56 41° 309° (NW) 04:30:53 435.215
YUBILEINY 29 Sep 04:32:37 04:40:31 36° 290° (WNW) 04:48:25 435.215
RS-15 29 Sep 04:35:56 04:48:24 75° 54° (NE) 05:00:33 29.354- 29.394
STARS 29 Sep 04:37:47 04:42:09 72° 257° (WSW) 04:46:33 437.465
Cosmos 2504 29 Sep 04:38:15 04:45:37 69° 280° (W) 04:52:47 435.465 / 435.565
AO-7 29 Sep 04:55:42 05:04:03 87° 289° (WNW) 05:12:22 29.400- 29.500
CUSAT 1 29 Sep 05:04:45 05:11:36 33° 66° (ENE) 05:17:29 437.405
DANDE 29 Sep 05:04:58 05:10:34 19° 58° (ENE) 05:16:00 436.750
CUBESAT XI-V 29 Sep 05:13:47 05:18:29 77° 258° (WSW) 05:23:14 437.345
PCSat 29 Sep 05:15:26 05:20:36 44° 307° (NW) 05:25:47 145.827
ITAMSAT 1 29 Sep 05:16:23 05:20:11 21° 298° (WNW) 05:23:59 435.822/435.867
HORYU 2 29 Sep 05:18:20 05:22:09 27° 96° (E) 05:25:56 437.375
AIST 1 29 Sep 05:34:11 05:38:32 65° 280° (W) 05:42:54
